Voltar ao catálogo

XCUBE-1

AtivoCiênciaVLEO
NORAD 62400·PAYLOAD·🇺🇸 United States

Lançado Dec 21, 2024 de Vandenberg Space Force Base

Loading…

Próximas Passagens (próximas 24 horas)

TLE

AtualizadoSource: Space-Track

Época: Sep 14, 2026, 10:25 UTC

1 62400U 24247Z   26257.43468675  .00006299  00000-0  21760-3 0  9991
2 62400  44.9949 163.2476 0002241   0.3739 359.7146 15.30791750 96630

Acompanhe XCUBE-1 em tempo real com AllMySat

Download on the App Store